DUKOVANY Weather Reports


time (UTC)temp
F
wind
direction
speed
knots
gust
knots
rain 1hr
in
rain 24hr
in
rain mn
in
humidity
%
barometer
mb
20260507222349 55 320 7.8 0.0 0.00 0.00 0.00 62
20260507212049 57 310 7.8 0.0 0.00 0.00 0.00 58
20260507202051 59 320 10.4 0.0 0.00 0.00 0.00 51
20260507192151 59 270 4.3 0.0 0.00 0.00 0.00 51
20260507182048 61 300 4.3 0.0 0.00 0.00 0.00 48
20260507172048 63 290 10.4 0.0 0.00 0.00 0.00 42
20260507162351 64 330 6.1 0.0 0.00 0.00 0.00 48
20260507152049 63 360 7.8 0.0 0.00 0.00 0.00 51
20260507142051 66 220 7.8 0.0 0.00 0.00 0.00 39
20260507132151 63 180 7.8 0.0 0.00 0.00 0.00 55
20260507122048 66 230 13.9 0.0 0.00 0.00 0.00 37
20260507112107 66 190 10.4 0.0 0.00 0.00 0.00 42
20260507102249 64 210 7.8 0.0 0.00 0.00 0.00 48
20260507092048 61 240 7.8 0.0 0.00 0.00 0.00 51
20260507082048 59 280 12.2 0.0 0.00 0.00 0.00 62
20260507072049 57 240 12.2 0.0 0.00 0.00 0.00 62
20260507062049 55 260 6.1 0.0 0.00 0.00 0.00 71
20260507052048 55 240 12.2 0.0 0.00 0.00 0.00 71
20260507042251 54 230 7.8 0.0 0.00 0.00 0.00 81
20260507032048 54 240 6.1 0.0 0.00 0.00 0.00 81
20260507022046 54 230 6.1 0.0 0.00 0.00 0.00 81
20260507012148 54 240 6.1 0.0 0.00 0.00 0.00 87
20260507002048 55 260 10.4 0.0 0.00 0.00 0.00 76
20260506232049 57 290 10.4 0.0 0.00 0.00 0.00 71